Weather History for Samos, Greece

Change the Weather History Date:

Monday, December 3, 2012

  Actual Average Record
Temperature  
Mean Temperature 65 °F -  
Max Temperature 71 °F 59 °F 73 °F (2010)
Min Temperature 59 °F 47 °F 44 °F (2007)
Growing Degree Days 15 (Base 50)    
Moisture  
Dew Point 51 °F    
Average Humidity 57    
Maximum Humidity 78    
Minimum Humidity 32    
Precipitation  
Precipitation 0.01 in 0.21 in - ()
Sea Level Pressure  
Sea Level Pressure 29.75 in    
Wind  
Wind Speed 13 mph ()    
Max Wind Speed 22 mph    
Max Gust Speed 33 mph    
Visibility 6.2 miles    
Events Rain    
Averages and records for this station are not official NWS values.
T = Trace of Precipitation, MM = Missing Value Source: Averaged Metar Reports

Daily Weather History Graph

Daily Weather History Graph

Search for Another Location

Airport:

Trip Planner

Search our weather history database for the weather conditions in past years. The results will help you decide how hot, cold, wet, or windy it might be!

Date:

Astronomy

Dec. 03, 2012 Rise Set
Actual Time 7:10 AM EET 4:53 PM EET
Civil Twilight 6:41 AM EET 5:22 PM EET
Nautical Twilight 6:09 AM EET 5:55 PM EET
Astronomical Twilight 5:37 AM EET 6:26 PM EET
Moon 9:18 PM EET (12/3) 10:25 AM EET (12/3)
Length of Visible Light 10h 40m
Length of Day
9h 42m
Waning Gibbous, 80% of the Moon is Illuminated
Dec 3
Waning Gibbous
Dec 6
Last Quarter
Dec 13
New
Dec 20
First Quarter
Dec 28
Full

Hourly Weather History & Observations

Time (EET) Temp. Dew Point Humidity Pressure Visibility Wind Dir Wind Speed Gust Speed Precip Events Conditions
4:50 AM 68.0 °F 57.2 °F 68% 29.74 in 6.2 mi WSW 19.6 mph - N/A   Scattered Clouds
5:20 AM 68.0 °F 57.2 °F 68% 29.74 in 6.2 mi WSW 15.0 mph - N/A   Scattered Clouds
5:50 AM 68.0 °F 59.0 °F 73% 29.77 in 6.2 mi West 13.8 mph - N/A   Scattered Clouds
6:20 AM 68.0 °F 59.0 °F 73% 29.77 in 6.2 mi WSW 11.5 mph - N/A   Scattered Clouds
6:50 AM 66.2 °F 59.0 °F 78% 29.80 in 6.2 mi West 8.1 mph - N/A   Scattered Clouds
7:20 AM 62.6 °F 50.0 °F 63% 29.80 in 6.2 mi WSW 5.8 mph - N/A   Scattered Clouds
7:50 AM 59.0 °F 50.0 °F 72% 29.80 in 6.2 mi WSW 5.8 mph - N/A   Scattered Clouds
8:00 AM 60 °F 49 °F 59% 29.82 in 6 mi WSW 5.8 mph - -   Partly Cloudy
8:20 AM 60.8 °F 48.2 °F 63% 29.80 in 6.2 mi SW 12.7 mph - N/A   Scattered Clouds
8:50 AM 62.6 °F 50.0 °F 63% 29.80 in 6.2 mi WSW 15.0 mph - N/A   Scattered Clouds
9:20 AM 64.4 °F 46.4 °F 52% 29.80 in 6.2 mi WSW 13.8 mph - N/A   Scattered Clouds
9:50 AM 68.0 °F 51.8 °F 56% 29.83 in 6.2 mi WSW 18.4 mph - N/A   Scattered Clouds
10:20 AM 68.0 °F 51.8 °F 56% 29.83 in 6.2 mi WSW 18.4 mph - N/A   Scattered Clouds
10:50 AM 69.8 °F 50.0 °F 49% 29.83 in 6.2 mi WSW 16.1 mph - N/A   Scattered Clouds
11:20 AM 69.8 °F 50.0 °F 49% 29.83 in 6.2 mi SW 16.1 mph - N/A   Scattered Clouds
11:50 AM 71.6 °F 50.0 °F 46% 29.77 in 6.2 mi SW 18.4 mph - N/A   Scattered Clouds
12:20 PM 71.6 °F 50.0 °F 46% 29.77 in 6.2 mi SW 20.7 mph - N/A   Scattered Clouds
12:50 PM 71.6 °F 51.8 °F 50% 29.74 in 6.2 mi WSW 19.6 mph - N/A   Scattered Clouds
1:20 PM 69.8 °F 46.4 °F 43% 29.74 in 6.2 mi SW 13.8 mph - N/A   Scattered Clouds
1:50 PM 69.8 °F 46.4 °F 43% 29.74 in 6.2 mi SW 16.1 mph - N/A   Scattered Clouds
2:00 PM 70 °F 47 °F 32% 29.75 in 6 mi SW 16.1 mph - -   Partly Cloudy
2:20 PM 69.8 °F 46.4 °F 43% 29.74 in 6.2 mi SW 15.0 mph - N/A   Scattered Clouds
2:50 PM 69.8 °F 46.4 °F 43% 29.74 in 6.2 mi SW 13.8 mph - N/A   Scattered Clouds
3:20 PM 68.0 °F 50.0 °F 52% 29.71 in 6.2 mi SW 11.5 mph - N/A   Scattered Clouds
3:50 PM 68.0 °F 50.0 °F 52% 29.71 in 6.2 mi SW 16.1 mph - N/A   Scattered Clouds
4:20 PM 66.2 °F 50.0 °F 56% 29.71 in 6.2 mi SW 17.3 mph - N/A   Scattered Clouds
4:50 PM 66.2 °F 50.0 °F 56% 29.71 in 6.2 mi SW 16.1 mph - N/A   Scattered Clouds
5:20 PM 64.4 °F 50.0 °F 59% 29.68 in 6.2 mi SW 15.0 mph - N/A   Scattered Clouds
5:50 PM 64.4 °F 51.8 °F 64% 29.68 in 6.2 mi SW 15.0 mph 29.9 mph N/A   Scattered Clouds
6:20 PM 62.6 °F 51.8 °F 68% 29.68 in 6.2 mi SW 20.7 mph 32.2 mph N/A   Scattered Clouds
6:50 PM 62.6 °F 51.8 °F 68% 29.65 in 6.2 mi SW 18.4 mph - N/A Rain Light Rain
7:20 PM 62.6 °F 51.8 °F 68% 29.62 in 6.2 mi SW 16.1 mph - N/A Rain Light Rain
7:50 PM 64.4 °F 50.0 °F 59% 29.65 in 6.2 mi SW 21.9 mph 33.4 mph N/A   Mostly Cloudy
8:00 PM 65 °F 50 °F 47% 29.65 in 6 mi SW 21.9 mph - - Rain Light Rain